FM-5

Last updated on Tue Jul 01 2025 00:02:45 GMT+0000 (Coordinated Universal Time)

1 35493U 09034A 25181.55076522 -.00000201 00000+0 00000+0 0 9991 2 35493 0.0140 312.0936 0000410 59.5065 19.3848 1.00279127 43111
UTC large
Height (km)
Speed (km/s)
/
Latitude / Longitude
Inclination (degrees)
Orbital Period (minutes)
Azimuth
Elevation
Range (km)
Doppler Factor

Next 0 passes for location: London (51.5072 / 0.1276)

Sorry there are no passes over London.